Location: Fort Collins
(40.5850°N, 105.0840°W)
Time: 14:42:38
(UTC-06:00)

Daily predictions for brighter satellites

Satellite Brightness Start Highest point End
(mag) Time Altitude Azimuth Time Altitude Azimuth Time Altitude Azimuth
Cosmos 2074 Rocket 4.3 20:43:21 10° N 20:49:28 53° E 20:55:34 10° SSE
Cosmos 2315 Rocket 4.5 20:43:51 10° SSW 20:50:05 69° W 20:56:25 10° N
Cosmos 405 Rocket 2.7 20:46:58 10° S 20:50:38 57° E 20:54:24 10° NNE
Resurs 1-3 4.3 20:47:09 10° S 20:51:27 57° W 20:55:47 10° NNW
Aureole 1 Rocket 2.8 20:48:35 10° S 20:51:39 35° ESE 20:54:26 10° NE
Cosmos 1500 4.2 20:48:24 10° NNW 20:52:02 49° W 20:55:39 10° S
Cosmos 2184 Rocket 4.2 20:46:36 10° N 20:52:50 55° E 20:58:57 10° SSE
Tiangong 2 1.0 20:52:27 10° WSW 20:55:37 76° SSE 20:58:48 10° ENE
Cosmos 1441 Rocket 3.8 20:56:00 10° SSE 20:59:26 36° E 21:02:52 10° NNE
Cosmos 923 Rocket 4.2 20:56:47 10° SSW 21:02:06 84° WNW 21:07:26 10° NNE
Meteor 1-19 Rocket 4.3 20:56:34 10° S 21:02:21 74° E 21:08:04 10° NNE
Cosmos 1455 Rocket 4.0 21:01:11 10° NNW 21:05:22 48° W 21:09:31 10° SSW
Resurs 01 Rocket 3.2 21:01:20 10° SSW 21:05:23 35° W 21:09:28 10° NNW
ERS-1 Rocket 3.7 21:01:49 10° SE 21:06:26 38° ENE 21:11:03 10° N
Meteor 1-29 2.8 21:05:23 10° NNE 21:08:44 65° ESE 21:12:03 10° S
SPOT 5 4.2 21:09:29 10° ESE 21:12:38 20° ENE 21:15:49 10° NNE
CENTAUR R/B 3.5 21:07:54 10° NW 21:15:48 67° WSW 21:24:08 10° SSE
Nadezhda 1 Rocket 4.0 21:15:01 10° S 21:21:18 71° E 21:27:41 10° NNE
CZ-4B DEB 3.0 21:21:15 10° S 21:24:11 62° W 21:27:10 10° NNW
COSMOS 2406 3.8 21:18:34 10° SW 21:24:14 62° WNW 21:29:54 10° NNE
Cosmos 1743 3.6 21:21:02 10° NNW 21:24:48 49° W 21:28:34 10° S
Meteor 1-15 Rocket 4.5 21:19:42 10° N 21:25:09 50° ENE 21:29:49 14° SSE
Cosmos 2082 Rocket 3.4 21:23:35 13° SE 21:26:49 21° E 21:30:56 10° NE
ISS -2.8 21:27:45 10° WSW 21:30:57 50° NNW 21:34:10 10° NE
MOS 1-B Rocket 4.3 21:26:28 14° SE 21:31:23 53° ENE 21:37:39 10° N
CRYOSAT 2 4.3 21:28:12 10° SSE 21:33:00 72° E 21:37:50 10° N
Cosmos 2112 Rocket 4.4 21:29:30 10° SSW 21:34:41 65° WNW 21:39:51 10° NNE
Cosmos 1238 Rocket 4.1 21:28:25 10° S 21:35:10 86° E 21:41:40 10° N
Cosmos 2154 Rocket 4.1 21:30:40 10° N 21:37:00 66° E 21:42:31 14° SSE
ASTEX 1 3.4 21:34:52 10° S 21:39:47 89° W 21:44:41 10° N
SL-27 R/B 3.6 21:37:09 10° SW 21:40:40 47° WNW 21:44:13 10° N
Helios 1A 4.4 21:37:08 10° SSW 21:41:00 35° W 21:44:53 10° NNW
OAO 2 Rocket 3.7 21:36:25 10° WSW 21:41:03 43° S 21:44:04 20° SE
Cosmos 1624 Rocket 4.1 21:36:59 10° NNW 21:42:14 63° ENE 21:45:57 19° SSE
H-2A R/B 3.1 21:40:27 17° ESE 21:43:17 29° ENE 21:47:37 10° N
YAOGAN 6 3.0 21:41:00 12° S 21:44:07 57° W 21:47:35 10° NNW
Cosmos 2228 4.2 21:40:54 10° NNE 21:44:34 27° ENE 21:46:19 20° ESE
Cosmos 1939 Rocket 4.2 21:41:13 10° SSW 21:44:47 35° W 21:48:22 10° NNW
Aureole 3 Rocket 4.4 21:38:44 10° SSW 21:44:49 51° W 21:49:13 10° N
Cosmos 921 Rocket 3.7 21:42:51 10° N 21:47:05 41° ENE 21:49:22 23° SE
Cosmos 2369 4.3 21:41:35 10° NNW 21:47:06 46° ENE 21:50:41 21° SE
Cosmos 1666 3.9 21:43:43 10° NNW 21:47:13 38° W 21:50:41 10° SSW
Cosmos 1697 Rocket 4.1 21:42:59 10° N 21:47:32 24° NE 21:50:57 14° E
Cosmos 967 Rocket 4.4 21:46:02 10° SSW 21:52:15 73° ESE 21:58:31 10° NE
SL-08 RB Rocket 4.2 21:50:33 23° SE 21:52:55 44° ENE 21:57:10 10° N
Okean 1-7 Rocket 4.2 21:50:24 10° SSW 21:54:47 59° W 21:59:14 10° N
Cosmos 1656 4.5 21:50:00 10° N 21:55:02 37° ENE 21:58:04 21° ESE
Cosmos 1892 Rocket 3.6 21:52:30 20° SSE 21:55:27 57° E 21:59:48 10° NNE
Cosmos 1437 Rocket 2.6 21:54:43 10° N 21:58:34 88° WSW 22:00:44 25° S
Cosmos 2056 Rocket 3.4 21:56:23 10° NNW 22:01:34 87° ENE 22:04:39 25° SSE
Cosmos 1833 Rocket 3.1 22:00:38 21° SSE 22:03:47 40° ESE 22:08:59 10° NE
PSLV R/B 3.5 22:02:05 10° W 22:05:02 41° SSW 22:05:22 40° S
Cosmos 1606 Rocket 3.5 22:03:37 10° N 22:07:56 81° W 22:10:23 25° S
MetOp-A 4.2 22:04:46 19° S 22:08:39 75° WSW 22:14:01 10° NNW
Cosmos 2341 Rocket 4.0 22:03:33 10° N 22:09:56 86° E 22:14:23 21° S
NOSS 8 (E) 4.3 22:07:27 10° SSW 22:10:53 82° ESE 22:14:34 10° NE
Cosmos 1726 Rocket 3.6 22:13:20 10° N 22:17:38 76° W 22:19:45 29° S
Cosmos 1515 3.9 22:15:55 23° SSW 22:18:11 69° W 22:21:59 10° N
Cosmos 1066 Rocket 4.3 22:16:09 28° SSE 22:18:52 55° E 22:24:21 10° NNE
COSMOS 2487 2.3 22:17:33 34° SSW 22:19:00 85° ESE 22:22:34 10° NNE
USA 245 2.4 22:19:45 65° W 22:19:45 65° W 22:21:59 10° NNW
Cosmos 2218 Rocket 4.2 22:15:15 10° N 22:21:17 54° E 22:24:05 31° SE
CARTOSAT-1 4.3 22:27:22 34° E 22:28:17 38° ENE 22:32:17 10° N
Cosmos 839 Rocket 4.4 22:25:25 10° NW 22:32:03 77° WSW 22:36:25 29° SSE
Cosmos 2058 Rocket 3.2 22:28:02 10° NNW 22:32:27 73° W 22:34:08 37° S
Tiangong 2 1.7 22:29:21 10° W 22:32:28 54° N 22:33:11 42° NE
Landsat 7 3.9 22:31:20 41° SE 22:32:51 65° ENE 22:37:34 10° N
Cosmos 1452 Rocket 3.5 22:28:17 10° NNW 22:33:34 69° ENE 22:35:24 40° SE
SPOT 1/Viking Rocket 3.5 22:32:18 34° S 22:34:38 81° WSW 22:39:49 10° NNW
Cosmos 1766 4.3 22:31:30 10° NNE 22:35:00 30° ENE 22:35:01 30° ENE
Cosmos 1980 Rocket 3.2 22:30:51 10° N 22:36:00 34° ENE 22:38:08 26° E
Cosmos 2181 Rocket 4.3 22:34:13 14° SSW 22:39:43 66° W 22:45:59 10° N
Lacrosse 5 rocket 4.3 22:37:50 10° NNW 22:40:09 13° NNE 22:42:27 10° NE
ARGOS 3.8 22:40:03 24° SSW 22:43:05 49° W 22:48:20 10° NNW
Cosmos 2322 Rocket 4.2 22:42:27 10° N 22:46:06 17° NE 22:48:59 12° E
Terra 1.9 22:46:49 49° SE 22:47:53 64° ENE 22:52:35 10° N
SPOT 5 3.8 22:48:43 24° SW 22:50:29 34° W 22:54:28 10° NNW
H-2A R/B 2.1 22:52:19 57° SE 22:53:04 70° ENE 22:57:34 10° N
USA 267 4.0 22:48:14 10° ENE 22:52:59 30° ESE 22:52:59 30° ESE
IGS 5A 3.3 22:54:43 67° ESE 22:55:03 71° ENE 22:59:12 10° N
Cosmos 1812 Rocket 3.7 22:50:55 10° N 22:55:20 57° E 22:55:42 55° ESE
Cosmos 468 4.4 22:57:42 38° SSW 22:59:46 88° WNW 23:05:05 10° NNE
Cosmos 864 Rocket 4.4 22:56:42 10° N 23:03:01 86° W 23:05:17 42° S
Cosmos 1626 Rocket 3.6 23:03:25 56° SW 23:04:11 70° W 23:08:30 10° N
ATLAS CENTAUR R/B 3.7 23:04:38 10° NNE 23:05:55 11° NE 23:06:55 11° ENE
Spot 4 4.1 23:06:02 49° E 23:06:36 52° ENE 23:11:16 10° N
Cosmos 1805 4.2 23:03:05 10° N 23:06:12 36° ENE 23:06:12 36° ENE
Meteor 2-21 4.5 23:00:49 10° NNW 23:06:51 74° W 23:09:01 41° S
ISS -0.5 23:06:03 10° NW 23:08:03 15° NNW 23:10:03 10° NNE
Cosmos 2082 Rocket 2.9 23:05:18 12° SW 23:10:27 53° WNW 23:16:00 10° NNE
Meteor 2-21 Rocket 4.3 23:04:53 10° N 23:10:57 85° W 23:12:47 48° S
CZ-2C R/B 4.4 23:08:39 10° NE 23:11:50 18° E 23:11:50 18° E
SL-19 R/B 4.0 23:09:33 10° NNE 23:14:54 83° WNW 23:16:21 49° SSW
Meteor 1-22 Rocket 4.2 23:10:24 10° NNW 23:15:40 69° W 23:16:58 50° SSW
Cosmos 1825 Rocket 4.1 23:18:32 44° ENE 23:18:32 44° ENE 23:22:03 10° NNE
H-2A R/B 3.3 23:21:04 25° SW 23:22:38 31° W 23:27:03 10° NW
Meteor 1-4 Rocket 4.1 23:20:10 10° NNW 23:23:05 28° W 23:23:05 28° W
USA 229 DEB 3.8 23:16:53 10° NNW 23:24:04 77° NE 23:26:31 45° SE
USA 229 3.8 23:17:00 10° NNW 23:24:10 76° NE 23:26:37 45° SE
Cosmos 2366 rocket 4.5 23:20:06 10° NNW 23:26:03 52° W 23:28:15 36° SW
CZ-4C R/B 4.1 23:27:51 42° NNE 23:27:51 42° NNE 23:30:27 10° N
Cosmos 158 Rocket 4.0 23:25:50 53° SW 23:27:05 78° WNW 23:32:30 10° NNE
Cosmos 1697 Rocket 3.1 23:26:22 10° NW 23:31:46 50° WSW 23:32:41 45° SW
Iridium 2 4.3 23:28:40 10° N 23:31:46 54° NW 23:31:46 54° NW
Cosmos 2360 4.1 23:27:15 10° NNW 23:32:59 82° ENE 23:33:49 66° SE
Cosmos 1842 3.8 23:34:20 57° NW 23:34:20 57° NW 23:37:43 10° N
CZ-4B R/B 3.5 23:30:51 10° N 23:35:57 79° WNW 23:36:44 64° SW
SL-16 R/B 3.0 23:33:00 10° N 23:38:18 39° ENE 23:39:29 35° E
Cosmos 1271 Rocket 3.5 23:36:40 10° NNW 23:39:50 48° WNW 23:39:50 48° WNW
Cosmos 1833 Rocket 4.4 23:42:56 10° WSW 23:47:47 29° WNW 23:52:41 10° N
Cosmos-2242 4.1 23:44:58 10° N 23:48:14 35° NE 23:48:14 35° NE
Cosmos 389 Rocket 4.1 23:50:00 10° N 23:52:00 32° NNW 23:52:00 32° NNW
Cosmos 1953 3.0 23:51:34 10° N 23:54:46 52° NNW 23:54:46 52° NNW
